DW4725 Weather Reports


Display with metric or nautical units.
time (UTC)temp
F
wind
direction
speed
MPH
gust
MPH
rain 1hr
in
rain 24hr
in
rain mn
in
humidity
%
barometer
mb
20260504043740 49 91 2.0 6.0 0.00 0.00 0.00 88 1013.5
20260504043541 50 88 2.0 6.0 0.00 0.00 0.00 88 1013.4
20260504043339 50 40 2.0 6.0 0.00 0.00 0.00 88 1013.5
20260504042815 50 98 3.0 7.0 0.00 0.00 0.00 88 1013.4
20260504042610 50 47 3.0 7.0 0.00 0.00 0.00 88 1013.5
20260504042409 50 71 3.0 7.0 0.00 0.00 0.00 87 1013.4
20260504042205 50 58 3.0 7.0 0.00 0.00 0.00 87 1013.4
20260504042006 50 69 2.0 7.0 0.00 0.00 0.00 87 1013.4
20260504041805 50 72 2.0 7.0 0.00 0.00 0.00 87 1013.6
20260504041606 50 41 2.0 7.0 0.00 0.00 0.00 87 1013.5
20260504041402 50 34 2.0 7.0 0.00 0.00 0.00 87 1013.5
20260504041152 50 96 2.0 7.0 0.00 0.00 0.00 87 1013.6
20260504040943 50 56 2.0 7.0 0.00 0.00 0.00 87 1013.6
20260504040417 50 74 3.0 6.0 0.00 0.00 0.00 87 1013.7
20260504040217 50 63 3.0 6.0 0.00 0.00 0.00 87 1013.6
20260504040014 50 79 2.0 5.0 0.00 0.00 0.00 87 1013.7
20260504035125 49 56 1.0 6.0 0.00 0.00 0.00 88 1013.9
20260504034917 49 84 2.0 6.0 0.00 0.00 0.00 88 1013.8
20260504034709 49 56 2.0 6.0 0.00 0.00 0.00 89 1013.8
20260504034504 49 116 2.0 6.0 0.00 0.00 0.00 89 1013.9
20260504034257 49 108 2.0 6.0 0.00 0.00 0.00 89 1013.9
20260504034052 49 101 2.0 6.0 0.00 0.00 0.00 89 1014.0
20260504033843 49 74 2.0 6.0 0.00 0.00 0.00 89 1013.9
20260504033643 49 59 1.0 4.0 0.00 0.00 0.00 89 1013.9
20260504033435 49 103 1.0 4.0 0.00 0.00 0.00 89 1014.0
20260504033235 49 101 1.0 4.0 0.00 0.00 0.00 89 1013.9
20260504032709 49 82 0.0 4.0 0.00 0.00 0.00 89 1014.0
20260504032138 49 103 0.0 4.0 0.00 0.00 0.00 89 1014.1
20260504031939 49 97 1.0 4.0 0.00 0.00 0.00 88 1014.1
20260504031412 50 112 0.0 3.0 0.00 0.00 0.00 87 1014.2
20260504031212 50 106 0.0 2.0 0.00 0.00 0.00 87 1014.2
20260504031010 50 113 0.0 2.0 0.00 0.00 0.00 86 1014.1
20260504030808 50 107 0.0 1.0 0.00 0.00 0.00 86 1014.2
20260504030240 51 97 0.0 0.0 0.00 0.00 0.00 85 1014.1
20260504025721 50 98 0.0 2.0 0.00 0.00 0.00 85 1014.2
20260504025522 51 109 0.0 1.0 0.00 0.00 0.00 84 1014.3
20260504025314 51 122 0.0 1.0 0.00 0.00 0.00 84 1014.4
20260504024757 50 121 0.0 1.0 0.00 0.00 0.00 84 1014.4
20260504024547 50 121 0.0 0.0 0.00 0.00 0.00 84 1014.5
20260504024343 50 121 0.0 0.0 0.00 0.00 0.00 85 1014.4
20260504024136 50 121 0.0 0.0 0.00 0.00 0.00 85 1014.4
20260504023932 50 117 0.0 0.0 0.00 0.00 0.00 85 1014.4
20260504023731 50 116 0.0 0.0 0.00 0.00 0.00 85 1014.4
20260504022213 50 86 0.0 1.0 0.00 0.00 0.00 86 1014.4
20260504022005 50 100 0.0 3.0 0.00 0.00 0.00 85 1014.5
20260504021759 50 124 0.0 3.0 0.00 0.00 0.00 85 1014.7
20260504021558 50 120 1.0 3.0 0.00 0.00 0.00 85 1014.7
20260504021026 50 114 1.0 3.0 0.00 0.00 0.00 84 1014.8
20260504020819 50 124 1.0 3.0 0.00 0.00 0.00 84 1014.8
20260504020620 50 125 0.0 3.0 0.00 0.00 0.00 84 1014.7
20260504020417 50 124 0.0 3.0 0.00 0.00 0.00 83 1014.7
20260504020213 51 124 0.0 3.0 0.00 0.00 0.00 82 1014.8
20260504020010 51 121 0.0 1.0 0.00 0.00 0.00 82 1014.8
20260504015450 51 90 0.0 1.0 0.00 0.00 0.00 82 1014.8
20260504015245 51 109 0.0 1.0 0.00 0.00 0.00 81 1014.9
20260504015038 51 115 0.0 0.0 0.00 0.00 0.00 81 1014.8
20260504014838 51 150 0.0 0.0 0.00 0.00 0.00 81 1014.8
20260504014631 52 150 0.0 0.0 0.00 0.00 0.00 80 1014.9
20260504014422 52 150 0.0 0.0 0.00 0.00 0.00 79 1014.9
20260504013858 52 150 0.0 0.0 0.00 0.00 0.00 76 1014.8
20260504013653 52 150 0.0 0.0 0.00 0.00 0.00 76 1014.8
20260504013118 52 150 0.0 0.0 0.00 0.00 0.00 76 1014.9
20260504012917 52 150 0.0 0.0 0.00 0.00 0.00 76 1014.8
20260504012355 52 150 0.0 0.0 0.00 0.00 0.00 76 1014.9
20260504012146 52 150 0.0 0.0 0.00 0.00 0.00 77 1014.9
20260504011938 52 150 0.0 0.0 0.00 0.00 0.00 78 1015.0
20260504011738 52 150 0.0 0.0 0.00 0.00 0.00 78 1014.9
20260504011216 52 103 0.0 1.0 0.00 0.00 0.00 78 1014.9
20260504011007 52 105 0.0 0.0 0.00 0.00 0.00 79 1014.9
20260504010439 52 206 0.0 0.0 0.00 0.00 0.00 79 1014.9
20260504005915 51 150 0.0 0.0 0.00 0.00 0.00 81 1014.9
20260504005347 51 118 0.0 0.0 0.00 0.00 0.00 81 1014.9
20260504005140 51 117 0.0 2.0 0.00 0.00 0.00 81 1014.9
20260504004929 51 108 0.0 2.0 0.00 0.00 0.00 82 1014.9
20260504004729 51 119 0.0 2.0 0.00 0.00 0.00 82 1014.9
20260504004526 51 108 0.0 0.0 0.00 0.00 0.00 82 1014.9
20260504004327 51 108 1.0 4.0 0.00 0.00 0.00 82 1014.9
20260504004119 51 110 1.0 4.0 0.00 0.00 0.00 82 1015.0
20260504003911 51 120 2.0 4.0 0.00 0.00 0.00 82 1014.9
20260504003707 51 118 2.0 4.0 0.00 0.00 0.00 82 1014.8
20260504003506 51 104 2.0 4.0 0.00 0.00 0.00 83 1014.7
20260504003300 51 112 2.0 4.0 0.00 0.00 0.00 84 1014.8
20260504003055 51 111 1.0 4.0 0.00 0.00 0.00 84 1014.9
20260504002846 51 116 1.0 4.0 0.00 0.00 0.00 84 1014.9
20260504002638 51 117 1.0 4.0 0.00 0.00 0.00 84 1014.9
20260504002119 50 112 1.0 4.0 0.00 0.00 0.00 84 1015.0
20260504001918 50 119 1.0 4.0 0.00 0.00 0.00 84 1015.0
20260504001713 50 120 1.0 4.0 0.00 0.00 0.00 84 1014.9
20260504001505 50 114 1.0 4.0 0.00 0.00 0.00 84 1014.9
20260504001258 50 113 1.0 4.0 0.00 0.00 0.00 84 1015.0
20260504000733 51 105 1.0 4.0 0.00 0.00 0.00 83 1015.0
20260504000531 51 112 2.0 4.0 0.00 0.00 0.00 83 1015.2
20260504000323 51 108 1.0 3.0 0.00 0.00 0.00 82 1015.1
20260504000116 51 116 1.0 3.0 0.00 0.00 0.00 81 1014.9
20260503235600 51 114 1.0 2.0 0.00 0.00 0.00 80 1014.9
20260503235035 51 106 0.0 2.0 0.00 0.00 0.00 78 1015.0
20260503234835 52 108 0.0 2.0 0.00 0.00 0.00 78 1015.0
20260503234630 52 117 0.0 1.0 0.00 0.00 0.00 77 1015.0
20260503234424 52 171 0.0 0.0 0.00 0.00 0.00 76 1015.0
20260503233850 52 221 0.0 0.0 0.00 0.00 0.00 77 1015.0
20260503233645 52 221 0.0 1.0 0.00 0.00 0.00 76 1015.0
20260503233130 52 108 0.0 0.0 0.00 0.00 0.00 77 1015.0
20260503232926 52 108 0.0 1.0 0.00 0.00 0.00 77 1015.0
20260503232359 52 108 0.0 1.0 0.00 0.00 0.00 77 1015.1
20260503232154 52 108 0.0 1.0 0.00 0.00 0.00 77 1015.1
20260503231954 51 108 0.0 1.0 0.00 0.00 0.00 77 1015.1
20260503231751 51 108 0.0 0.0 0.00 0.00 0.00 77 1015.3
20260503231545 51 108 0.0 0.0 0.00 0.00 0.00 77 1015.3
20260503231334 51 108 0.0 0.0 0.00 0.00 0.00 78 1015.2
20260503230759 51 108 0.0 1.0 0.00 0.00 0.00 78 1015.2
20260503230237 51 110 0.0 1.0 0.00 0.00 0.00 79 1015.3
20260503225721 51 110 0.0 0.0 0.00 0.00 0.00 80 1015.3
20260503225519 51 110 0.0 3.0 0.00 0.00 0.00 80 1015.3
20260503224947 51 106 1.0 3.0 0.00 0.00 0.00 81 1015.3
20260503224742 51 126 0.0 3.0 0.00 0.00 0.00 81 1015.4
20260503224543 51 121 0.0 3.0 0.00 0.00 0.00 80 1015.4
20260503224333 51 116 0.0 3.0 0.00 0.00 0.00 80 1015.4
20260503224123 51 127 0.0 1.0 0.00 0.00 0.00 79 1015.4
20260503223917 52 115 0.0 1.0 0.00 0.00 0.00 79 1015.4
20260503223026 52 165 0.0 0.0 0.00 0.00 0.00 76 1015.5
20260503222824 52 168 0.0 0.0 0.00 0.00 0.00 76 1015.5
20260503222624 52 168 0.0 0.0 0.00 0.00 0.00 75 1015.6
20260503222416 52 167 0.0 0.0 0.00 0.00 0.00 76 1015.5
20260503222214 52 172 0.0 0.0 0.00 0.00 0.00 76 1015.4
20260503222006 52 172 0.0 0.0 0.00 0.00 0.00 75 1015.5
20260503221805 52 151 0.0 1.0 0.00 0.00 0.00 76 1015.5
20260503221557 52 105 0.0 1.0 0.00 0.00 0.00 76 1015.6
20260503221349 52 105 0.0 1.0 0.00 0.00 0.00 76 1015.5
20260503221147 52 208 0.0 1.0 0.00 0.00 0.00 76 1015.5
20260503220947 52 206 0.0 1.0 0.00 0.00 0.00 75 1015.6
20260503220741 52 207 0.0 1.0 0.00 0.00 0.00 76 1015.6
20260503220532 53 197 0.0 0.0 0.00 0.00 0.00 76 1015.7
20260503220333 53 197 0.0 0.0 0.00 0.00 0.00 76 1015.6
20260503220129 53 197 0.0 0.0 0.00 0.00 0.00 76 1015.6
20260503215920 53 197 0.0 0.0 0.00 0.00 0.00 76 1015.6
20260503215717 53 197 0.0 0.0 0.00 0.00 0.00 76 1015.5
20260503215518 53 178 0.0 0.0 0.00 0.00 0.00 76 1015.5
20260503215312 53 178 0.0 0.0 0.00 0.00 0.00 75 1015.6
20260503215106 53 200 0.0 0.0 0.00 0.00 0.00 75 1015.5
20260503214857 53 205 0.0 3.0 0.00 0.00 0.00 75 1015.5
20260503214651 53 238 0.0 3.0 0.00 0.00 0.00 76 1015.5
20260503214125 52 198 0.0 3.0 0.00 0.00 0.00 76 1015.4
20260503213922 52 211 0.0 3.0 0.00 0.00 0.00 76 1015.4
20260503213720 52 224 0.0 3.0 0.00 0.00 0.00 77 1015.4
20260503213510 52 207 0.0 3.0 0.00 0.00 0.00 77 1015.5
20260503213303 52 195 0.0 3.0 0.00 0.00 0.00 78 1015.5
20260503212741 52 98 0.0 3.0 0.00 0.00 0.00 79 1015.4
20260503212535 51 192 0.0 3.0 0.00 0.00 0.00 80 1015.5
20260503212331 51 163 0.0 3.0 0.00 0.00 0.00 80 1015.4
20260503211807 51 99 0.0 3.0 0.00 0.00 0.00 80 1015.3
20260503211558 51 89 0.0 3.0 0.00 0.00 0.00 79 1015.3
20260503211354 51 205 0.0 0.0 0.00 0.00 0.00 79 1015.3
20260503210828 51 184 0.0 0.0 0.00 0.00 0.00 80 1015.4
20260503210621 51 139 0.0 3.0 0.00 0.00 0.00 80 1015.4
20260503205731 51 134 0.0 1.0 0.00 0.00 0.00 81 1015.3
20260503205527 51 89 0.0 1.0 0.00 0.00 0.00 80 1015.3
20260503205323 51 210 0.0 0.0 0.00 0.00 0.00 80 1015.4
20260503205121 51 210 0.0 1.0 0.00 0.00 0.00 80 1015.4
20260503204919 51 210 0.0 3.0 0.00 0.00 0.00 80 1015.3
20260503204356 51 227 0.0 3.0 0.00 0.00 0.00 80 1015.3
20260503203831 51 228 0.0 3.0 0.00 0.00 0.00 80 1015.3
20260503203629 51 228 0.0 3.0 0.00 0.00 0.00 80 1015.3
20260503203427 51 241 0.0 3.0 0.00 0.00 0.00 80 1015.3
20260503203218 50 232 0.0 3.0 0.00 0.00 0.00 80 1015.3
20260503203016 50 216 0.0 2.0 0.00 0.00 0.00 80 1015.2
20260503202127 51 231 0.0 1.0 0.00 0.00 0.00 81 1015.3
20260503201928 51 231 0.0 1.0 0.00 0.00 0.00 81 1015.2
20260503201726 51 231 0.0 1.0 0.00 0.00 0.00 81 1015.2
20260503201523 51 231 0.0 1.0 0.00 0.00 0.00 81 1015.2
20260503201315 51 231 0.0 0.0 0.00 0.00 0.00 81 1015.0
20260503200747 51 231 0.0 0.0 0.00 0.00 0.00 81 1015.2
20260503200539 51 231 0.0 0.0 0.00 0.00 0.00 82 1015.2
20260503195654 51 238 1.0 3.0 0.00 0.00 0.00 82 1015.1
20260503195446 51 238 1.0 3.0 0.00 0.00 0.00 83 1015.1
20260503195247 51 239 1.0 3.0 0.00 0.00 0.00 83 1015.2
20260503195038 51 238 1.0 3.0 0.00 0.00 0.00 83 1015.2
20260503194156 51 233 0.0 4.0 0.00 0.00 0.00 84 1015.0
20260503193953 51 229 0.0 4.0 0.00 0.00 0.00 84 1014.9
20260503193750 51 226 0.0 4.0 0.00 0.00 0.00 84 1014.9
20260503193541 51 239 0.0 4.0 0.00 0.00 0.00 85 1014.9
20260503193339 51 239 1.0 4.0 0.00 0.00 0.00 85 1014.9
20260503193138 51 239 1.0 4.0 0.00 0.00 0.00 85 1014.8
20260503192938 51 229 2.0 4.0 0.00 0.00 0.00 84 1014.8
20260503192731 51 235 2.0 4.0 0.00 0.00 0.00 84 1014.8
20260503192530 51 229 2.0 4.0 0.00 0.00 0.00 84 1014.8
20260503192329 51 223 2.0 4.0 0.00 0.00 0.00 84 1014.9
20260503191814 51 240 1.0 3.0 0.00 0.00 0.00 84 1014.7
20260503191604 52 241 0.0 3.0 0.00 0.00 0.00 83 1014.8
20260503191358 52 240 0.0 3.0 0.00 0.00 0.00 83 1014.7
20260503191158 52 234 0.0 3.0 0.00 0.00 0.00 83 1014.6
20260503190952 52 127 0.0 0.0 0.00 0.00 0.00 81 1014.6
20260503190746 52 127 0.0 0.0 0.00 0.00 0.00 81 1014.6
20260503190541 52 127 0.0 0.0 0.00 0.00 0.00 81 1014.5
20260503190336 52 127 0.0 0.0 0.00 0.00 0.00 81 1014.5
20260503190131 52 117 0.0 0.0 0.00 0.00 0.00 81 1014.6
20260503185931 52 117 0.0 4.0 0.00 0.00 0.00 81 1014.6
20260503185721 52 111 0.0 10.0 0.00 0.00 0.00 81 1014.5
20260503185519 52 196 1.0 10.0 0.00 0.00 0.00 81 1014.5
20260503185309 52 234 2.0 10.0 0.00 0.00 0.00 81 1014.5
20260503185102 52 131 2.0 10.0 0.00 0.00 0.00 80 1014.5
20260503184851 53 98 2.0 10.0 0.00 0.00 0.00 80 1014.5
20260503184646 53 105 3.0 10.0 0.00 0.00 0.00 80 1014.3
20260503184446 53 118 4.0 10.0 0.00 0.00 0.00 80 1014.4
20260503184240 53 98 4.0 10.0 0.00 0.00 0.00 80 1014.3
20260503184031 53 102 5.0 10.0 0.00 0.00 0.00 80 1014.4
20260503183507 53 88 5.0 9.0 0.00 0.00 0.00 79 1014.3
20260503183258 52 110 5.0 9.0 0.00 0.00 0.00 80 1014.2
20260503182735 51 104 4.0 9.0 0.00 0.00 0.00 83 1014.2
20260503182535 51 115 3.0 9.0 0.00 0.00 0.00 84 1014.2
20260503182328 51 117 3.0 6.0 0.00 0.00 0.00 85 1014.2
20260503182128 51 86 2.0 6.0 0.00 0.00 0.00 85 1014.2
20260503181926 51 123 3.0 7.0 0.00 0.00 0.00 85 1014.2
20260503181722 51 113 3.0 7.0 0.00 0.00 0.00 85 1014.2
20260503181514 51 112 3.0 7.0 0.00 0.00 0.00 84 1014.1
20260503181310 52 69 4.0 7.0 0.00 0.00 0.00 83 1014.2
20260503180745 51 116 4.0 7.0 0.00 0.00 0.00 84 1014.4
20260503180537 51 132 4.0 7.0 0.00 0.00 0.00 84 1014.4
20260503180331 51 110 3.0 7.0 0.00 0.00 0.00 83 1014.4
20260503180128 51 98 2.0 7.0 0.00 0.00 0.00 83 1014.5
20260503175600 52 103 1.0 8.0 0.00 0.00 0.00 82 1014.9
20260503175359 51 101 2.0 8.0 0.00 0.00 0.00 82 1014.8
20260503175159 51 205 2.0 8.0 0.00 0.00 0.00 82 1014.9
20260503174952 51 230 2.0 8.0 0.00 0.00 0.00 83 1015.0
20260503174744 51 223 3.0 8.0 0.00 0.00 0.00 84 1014.9
20260503174543 51 235 3.0 11.0 0.00 0.00 0.00 84 1014.9
20260503174338 51 236 4.0 11.0 0.00 0.00 0.00 84 1015.0
20260503174135 51 246 5.0 11.0 0.00 0.00 0.00 83 1014.9
20260503173935 52 250 5.0 11.0 0.00 0.00 0.00 83 1014.9
20260503173729 52 248 5.0 11.0 0.00 0.00 0.00 83 1015.0
20260503173527 52 231 5.0 12.0 0.00 0.00 0.00 82 1015.0
20260503173326 52 214 5.0 12.0 0.00 0.00 0.00 82 1015.0
20260503173122 52 292 6.0 12.0 0.00 0.00 0.00 81 1015.1
20260503172916 52 224 6.0 12.0 0.00 0.00 0.00 81 1015.0
20260503172715 52 233 7.0 12.0 0.00 0.00 0.00 80 1015.0
20260503172158 53 232 8.0 12.0 0.00 0.00 0.00 78 1015.0
20260503171630 53 238 8.0 12.0 0.00 0.00 0.00 76 1014.9
20260503171421 53 244 8.0 11.0 0.00 0.00 0.00 75 1015.0
20260503171214 53 233 7.0 11.0 0.00 0.00 0.00 75 1014.9
20260503171007 54 236 7.0 11.0 0.00 0.00 0.00 75 1014.9
20260503170806 54 250 7.0 10.0 0.00 0.00 0.00 75 1015.0
20260503170601 54 238 7.0 10.0 0.00 0.00 0.00 74 1015.0
20260503170350 54 241 7.0 8.0 0.00 0.00 0.00 75 1015.0
20260503160205 55 251 6.0 13.0 0.00 0.00 0.00 71 1015.6
20260503150936 56 265 8.0 12.0 0.00 0.00 0.00 68 1015.9
20260503150736 56 233 7.0 12.0 0.00 0.00 0.00 68 1016.0
20260503150409 56 233 6.0 14.0 0.00 0.00 0.00 68 1016.1
20260503140103 59 240 3.0 8.0 0.00 0.00 0.00 60 1016.2
20260503131302 59 242 7.0 14.0 0.00 0.00 0.00 58 1016.2
20260503130738 58 248 7.0 12.0 0.00 0.00 0.00 59 1016.2
20260503130528 58 240 7.0 12.0 0.00 0.00 0.00 63 1016.2
20260503130327 58 246 7.0 17.0 0.00 0.00 0.00 65 1016.3
20260503130124 58 230 7.0 17.0 0.00 0.00 0.00 67 1016.3
20260503110721 64 240 1.0 4.0 0.00 0.00 0.00 66 1015.6
20260503090420 61 269 0.0 3.0 0.00 0.00 0.00 68 1015.9
20260503081502 58 311 0.0 0.0 0.00 0.00 0.00 77 1015.8
20260503081258 58 311 0.0 0.0 0.00 0.00 0.00 78 1015.9
20260503080727 57 311 0.0 0.0 0.00 0.00 0.00 74 1015.9
20260503072747 57 66 0.0 3.0 0.00 0.00 0.00 74 1015.8
20260503072537 57 56 0.0 3.0 0.00 0.00 0.00 73 1015.9
20260503071347 57 240 0.0 2.0 0.00 0.00 0.00 74 1016.4
20260503071138 57 240 0.0 2.0 0.00 0.00 0.00 73 1016.5
20260503070938 57 247 0.0 0.0 0.00 0.00 0.00 74 1016.5
20260503070734 57 126 0.0 0.0 0.00 0.00 0.00 76 1016.4
20260503070533 57 116 0.0 0.0 0.00 0.00 0.00 77 1016.5
20260503070331 57 116 0.0 0.0 0.00 0.00 0.00 78 1016.5
20260503055128 53 37 1.0 6.0 0.00 0.00 0.00 81 1016.5
20260503054921 53 244 1.0 6.0 0.00 0.00 0.00 80 1016.8
20260503054714 53 240 1.0 6.0 0.00 0.00 0.00 81 1016.8
20260503054504 53 231 0.0 6.0 0.00 0.00 0.00 80 1016.5
20260503054254 53 208 1.0 6.0 0.00 0.00 0.00 81 1016.6
20260503054050 53 210 1.0 6.0 0.00 0.00 0.00 81 1016.6
20260503053529 53 272 2.0 6.0 0.00 0.00 0.00 81 1016.5
20260503053321 53 85 2.0 6.0 0.00 0.00 0.00 81 1016.4
20260503053113 53 101 1.0 6.0 0.00 0.00 0.00 81 1016.3
20260503052905 53 133 0.0 5.0 0.00 0.00 0.00 80 1016.2
20260503052337 53 83 0.0 0.0 0.00 0.00 0.00 78 1016.2
20260503052138 53 112 0.0 1.0 0.00 0.00 0.00 78 1016.3
20260503051938 53 102 0.0 0.0 0.00 0.00 0.00 79 1016.4
20260503051738 53 102 0.0 0.0 0.00 0.00 0.00 80 1016.4
20260503051532 53 102 0.0 0.0 0.00 0.00 0.00 79 1016.4
20260503051332 53 102 0.0 0.0 0.00 0.00 0.00 79 1016.4
20260503051126 53 102 0.0 0.0 0.00 0.00 0.00 79 1016.4
20260503050608 53 102 0.0 1.0 0.00 0.00 0.00 79 1016.2
20260503050357 53 102 0.0 1.0 0.00 0.00 0.00 79 1016.2
20260503050148 53 87 0.0 1.0 0.00 0.00 0.00 79 1016.2
20260503045948 53 227 0.0 0.0 0.00 0.00 0.00 79 1016.3
20260503045743 53 227 0.0 0.0 0.00 0.00 0.00 79 1016.2
20260503045536 53 115 0.0 0.0 0.00 0.00 0.00 79 1016.3
20260503045335 52 116 0.0 2.0 0.00 0.00 0.00 79 1016.2
20260503045126 52 116 0.0 2.0 0.00 0.00 0.00 79 1016.2
20260503044924 53 116 0.0 2.0 0.00 0.00 0.00 78 1016.3
20260503044726 53 124 0.0 2.0 0.00 0.00 0.00 78 1016.4
20260503044157 53 262 0.0 0.0 0.00 0.00 0.00 78 1016.3
20260503043949 53 262 0.0 0.0 0.00 0.00 0.00 78 1016.3